Location: Buchloe
(48.0161°N, 10.7316°E)
Time: 12:15:19
(UTC+02:00)

ISS - Pass Details

Date: 23 May 2018
Orbit: 402 x 407 km, 51.6° (Epoch: 24 May)

Event Time Altitude Azimuth Distance (km) Brightness Sun altitude
Rises 00:35:30 0° 277° (W) 2,317 0.2 -20.9°
Reaches altitude 10° 00:37:39 10° 284° (WNW) 1,458 -0.7 -21.0°
Maximum altitude 00:40:46 42° 357° (N) 592 -2.6 -21.1°
Drops below altitude 10° 00:43:54 10° 71° (ENE) 1,457 -0.9 -21.1°
Sets 00:46:03 0° 78° (ENE) 2,316 0.1 -21.2°
